[[{"header":{"parameterUnit":"m.s-1","parameterCategory":1,"la1":30.2991,"la2":30.254,"lo1":-89.0895,"lo2":-89.0444,"dy":0.0017,"dx":0.0017,"nx":28,"ny":28,"refTime":"2024-06-13T21:00:00:Z","depth":0,"parameterNumber":2,"parameterNumberName":"U-component_of_WINDS"},"data":[0,0,0,0,0,0,0,0,0,0,0,0,0,0,0,0,0,0,0,0,0,0,0,0,0,0,0,0,0,0,0,0,0,0,0,0,0,0,0,0,0,0,0,0,0,0,0,0,0,0,0,0,0,0,0,0,0,0,1.2788,1.2788,0,1.2845,1.2845,1.2846,1.2867,1.2867,1.2867,1.2867,1.2922,1.2924,1.2926,0,0,0,0,0,0,0,0,0,0,0,0,0,1.2695,1.2696,1.2788,1.2788,1.2789,1.2844,1.2845,1.2846,1.2867,1.2867,1.2867,1.2866,1.2922,1.2924,1.2926,0,0,0,0,0,0,0,0,0,0,0,0,0,1.2741,1.2697,1.2788,1.2806,1.2809,1.2844,1.2845,1.2846,1.2867,1.2867,1.2867,1.2866,1.2921,1.2924,1.2926,1.2947,0,0,1.2934,1.2935,0,0,0,0,0,0,0,0,1.2739,1.2745,1.2803,1.2805,1.2808,1.2849,1.2833,1.288,1.2867,1.2845,1.2867,1.2866,1.2898,1.2902,1.2913,1.2949,1.2952,1.2934,1.2935,1.2936,1.2937,0,0,0,0,0,0,0,1.2736,1.2743,1.281,1.2804,1.2807,1.2811,1.2817,1.2842,1.2872,1.2847,1.2848,1.2855,1.2899,1.2911,1.2915,1.2952,1.2934,1.2936,1.2938,1.2939,1.3006,1.3007,0,0,0,0,0,0,1.273,1.274,1.2808,1.2812,1.2772,1.2813,1.282,1.2836,1.2872,1.2877,1.2855,1.2856,1.2907,1.2912,1.2917,1.2943,1.2936,1.2939,1.294,1.3006,1.3006,1.3007,0,0,0,0,0,0,1.2727,1.2735,1.2806,1.2776,1.2786,1.2815,1.2832,1.2837,1.2849,1.2878,1.2883,1.2862,1.2907,1.2913,1.2939,1.2945,1.294,1.2942,1.3006,1.3006,1.3007,1.2994,0,0,0,0,0,0,1.2725,1.2735,1.2744,1.2776,1.2787,1.2828,1.2833,1.2838,1.2853,1.2855,1.2886,1.2891,1.2907,1.2935,1.2941,1.2948,1.2944,1.3005,1.3006,1.3006,1.2994,1.2994,1.2994,0,0,0,0,0,1.2721,1.2738,1.2744,1.2752,1.2799,1.2828,1.2834,1.2853,1.2854,1.2862,1.2881,1.289,1.2943,1.2938,1.2945,1.2952,1.3005,1.3006,1.3006,1.2994,1.2994,1.2994,0,0,0,0,0,0,1.2704,1.2742,1.275,1.2777,1.2799,1.2832,1.2843,1.2853,1.2875,1.2875,1.2897,1.2904,1.2927,1.2943,1.2936,1.2973,1.2975,1.2977,1.2963,1.2963,1.2963,1.2959,1.2946,0,0,0,0,0,1.2704,1.2725,1.2757,1.2778,1.2789,1.2814,1.2828,1.284,1.2864,1.2873,1.2894,1.2916,1.2937,1.2951,1.2973,1.2996,1.3003,1.3005,1.3005,1.3005,1.3006,1.3019,1.302,1.3009,1.3009,1.3009,0,0,1.2703,1.2726,1.2738,1.2775,1.2794,1.2815,1.2822,1.2844,1.2859,1.2876,1.2902,1.2917,1.2943,1.2967,1.2979,1.2981,1.3011,1.3006,1.3005,1.3007,1.302,1.3021,1.3022,1.301,1.3009,1.3009,0,0,1.2712,1.2732,1.2751,1.277,1.2798,1.2815,1.2819,1.285,1.2861,1.2887,1.29,1.2918,1.2955,1.2973,1.2986,1.3,1.3009,1.3007,1.3007,1.3019,1.302,1.302,1.3025,1.3026,1.3008,1.3008,1.3008,0,1.2707,1.2739,1.276,1.2781,1.2796,1.2813,1.2832,1.2849,1.2882,1.2892,1.2893,1.2939,1.2958,1.2986,1.2989,1.3,1.3005,1.3003,1.3018,1.3019,1.302,1.3024,1.3026,1.3008,1.3008,1.3008,1.3008,0,1.2731,1.2754,1.2766,1.2798,1.2815,1.2835,1.2857,1.2871,1.2882,1.2898,1.2923,1.2946,1.2972,1.298,1.2991,1.3009,1.3009,1.3014,1.3015,1.302,1.3025,1.3027,1.3007,1.3007,1.3007,1.3007,0,0,1.2732,1.2775,1.2779,1.2793,1.2825,1.2842,1.2862,1.2888,1.2899,1.2921,1.2938,1.2968,1.2973,1.2988,1.3001,1.3012,1.302,1.3015,1.3016,1.3015,1.3041,1.3037,1.3039,1.3026,1.3027,1.3027,1.3039,0,1.2744,1.2782,1.28,1.2829,1.285,1.2865,1.2882,1.2903,1.2918,1.2937,1.2953,1.2974,1.2979,1.2988,1.2999,1.3017,1.3026,1.3016,1.3041,1.3042,1.3034,1.3042,1.3038,1.3048,1.3041,1.3041,1.3042,0,1.2765,1.2787,1.2818,1.2847,1.2856,1.2871,1.2896,1.2913,1.2937,1.2947,1.2964,1.2976,1.2996,1.2996,1.3024,1.3017,1.3028,1.3039,1.3039,1.3042,1.3042,1.3044,1.3052,1.3054,1.3045,1.3044,1.3044,0,1.2761,1.2798,1.2822,1.2834,1.2868,1.2878,1.2893,1.2916,1.293,1.2951,1.296,1.2983,1.2996,1.3013,1.303,1.3029,1.3056,1.3058,1.3065,1.3064,1.307,1.3069,1.3079,1.3077,1.3077,1.3077,1.3077,0,1.2773,1.2791,1.2821,1.2835,1.2855,1.2876,1.2895,1.2911,1.2931,1.2948,1.2962,1.2978,1.3,1.3018,1.3032,1.3052,1.3058,1.3066,1.307,1.3065,1.3064,1.3072,1.3072,1.3078,1.3077,1.3077,1.3077,0,1.2772,1.2793,1.2819,1.2849,1.2857,1.2871,1.2896,1.291,1.2925,1.2946,1.2952,1.2976,1.2998,1.3017,1.3046,1.3055,1.3076,1.308,1.3068,1.307,1.3076,1.3075,1.3091,1.3094,1.309,1.309,1.309,0,1.2778,1.2793,1.2824,1.2837,1.2851,1.2871,1.2886,1.2906,1.292,1.2947,1.2957,1.298,1.2999,1.3033,1.3053,1.3074,1.3079,1.3083,1.3082,1.3077,1.3079,1.3077,1.3079,1.3083,1.3083,1.3083,1.3083,0,1.2787,1.2796,1.2817,1.2841,1.2857,1.2877,1.2897,1.2906,1.293,1.2945,1.2967,1.2982,1.3011,1.3033,1.3057,1.3071,1.3081,1.3083,1.3086,1.3081,1.3073,1.3077,1.3068,1.3083,1.3083,1.3083,1.3083,1.3083,1.279,1.2803,1.2827,1.2849,1.2866,1.2884,1.2898,1.2916,1.2935,1.2961,1.2971,1.2994,1.3016,1.3049,1.3062,1.308,1.3082,1.3085,1.3086,1.3087,1.3086,1.307,1.3084,1.3084,1.3084,1.3084,1.3084,0,1.2799,1.2815,1.2835,1.2862,1.2879,1.2887,1.2909,1.2923,1.2943,1.2963,1.2981,1.3007,1.3028,1.3049,1.3071,1.3081,1.3086,1.3086,1.3085,1.3088,1.3083,1.3079,1.3082,1.3082,1.3082,1.3082,1.3082,1.3082,1.2805,1.2828,1.284,1.287,1.2886,1.2909,1.2921,1.2937,1.2953,1.2981,1.2999,1.3012,1.3032,1.3056,1.3076,1.3081,1.3088,1.3087,1.3094,1.3089,1.3089,1.3089,1.3085,1.3089,1.3089,1.3098,1.3098,1.3098]},{"header":{"parameterUnit":"m.s-1","parameterCategory":1,"la1":30.2991,"la2":30.254,"lo1":-89.0895,"lo2":-89.0444,"dy":0.0017,"dx":0.0017,"nx":28,"ny":28,"refTime":"2024-06-13T21:00:00:Z","depth":0,"parameterNumber":3,"parameterNumberName":"V-component_of_WINDS"},"data":[0,0,0,0,0,0,0,0,0,0,0,0,0,0,0,0,0,0,0,0,0,0,0,0,0,0,0,0,0,0,0,0,0,0,0,0,0,0,0,0,0,0,0,0,0,0,0,0,0,0,0,0,0,0,0,0,0,0,0.5712,0.5712,0,0.5699,0.5699,0.5699,0.5661,0.566,0.5659,0.5659,0.5646,0.5646,0.5647,0,0,0,0,0,0,0,0,0,0,0,0,0,0.5704,0.5705,0.5712,0.5712,0.5712,0.5699,0.5699,0.5699,0.5661,0.566,0.5659,0.5658,0.5646,0.5646,0.5647,0,0,0,0,0,0,0,0,0,0,0,0,0,0.5701,0.5705,0.5712,0.5692,0.569,0.5699,0.5699,0.5699,0.5661,0.566,0.5659,0.5658,0.5646,0.5646,0.5647,0.5676,0,0,0.5649,0.5649,0,0,0,0,0,0,0,0,0.5701,0.5701,0.5695,0.5693,0.5691,0.568,0.5691,0.5691,0.5662,0.5672,0.5659,0.5657,0.5659,0.5658,0.5658,0.5675,0.5675,0.5649,0.5649,0.565,0.565,0,0,0,0,0,0,0,0.5702,0.5702,0.5707,0.5695,0.5692,0.5683,0.5681,0.5691,0.5672,0.5671,0.5668,0.5667,0.5657,0.5658,0.5658,0.5674,0.5649,0.565,0.565,0.565,0.5712,0.5713,0,0,0,0,0,0,0.5705,0.5702,0.5707,0.5707,0.5693,0.5684,0.5682,0.5685,0.5672,0.5669,0.5668,0.5666,0.5657,0.5657,0.5657,0.5689,0.565,0.565,0.5651,0.5711,0.5713,0.5714,0,0,0,0,0,0,0.5705,0.5706,0.5708,0.5704,0.5703,0.5685,0.5689,0.5685,0.5686,0.567,0.5667,0.5672,0.5656,0.5656,0.5671,0.5688,0.5651,0.5651,0.571,0.5711,0.5713,0.5753,0,0,0,0,0,0,0.5705,0.5706,0.5717,0.5704,0.5704,0.5722,0.569,0.5686,0.5687,0.5683,0.5673,0.567,0.5655,0.567,0.5672,0.5688,0.5652,0.5708,0.571,0.5713,0.575,0.5756,0.5761,0,0,0,0,0,0.5705,0.5729,0.5717,0.5718,0.5717,0.5723,0.5723,0.5705,0.5689,0.5699,0.5689,0.567,0.5686,0.5672,0.5673,0.569,0.5707,0.571,0.5712,0.5748,0.5755,0.5761,0,0,0,0,0,0,0.5745,0.5727,0.5714,0.5735,0.5731,0.5717,0.573,0.5714,0.5714,0.5711,0.5689,0.5687,0.5704,0.5699,0.5684,0.5717,0.5693,0.5696,0.572,0.5727,0.5732,0.5733,0.5652,0,0,0,0,0,0.5756,0.5763,0.5747,0.5767,0.5765,0.5748,0.575,0.5737,0.5732,0.573,0.572,0.5716,0.572,0.5723,0.5725,0.5749,0.5746,0.5761,0.5767,0.5772,0.5775,0.5786,0.5792,0.5723,0.5723,0.5723,0,0,0.578,0.5771,0.5776,0.5775,0.577,0.5777,0.5747,0.5756,0.5761,0.5731,0.5744,0.5737,0.5731,0.575,0.5758,0.5746,0.5793,0.5775,0.5779,0.578,0.5789,0.5796,0.5802,0.5725,0.5725,0.5725,0,0,0.5826,0.582,0.5836,0.5831,0.5824,0.5812,0.5815,0.5804,0.5798,0.581,0.5787,0.5793,0.58,0.5796,0.5795,0.5838,0.5821,0.584,0.5869,0.588,0.5885,0.589,0.5904,0.591,0.5843,0.5843,0.5843,0,0.5856,0.5866,0.5846,0.5856,0.5856,0.5828,0.5843,0.584,0.5834,0.5834,0.5821,0.5828,0.5822,0.5839,0.585,0.585,0.5853,0.5841,0.5886,0.589,0.5894,0.5908,0.5914,0.5845,0.5845,0.5845,0.5844,0,0.5903,0.591,0.5924,0.5918,0.5919,0.5932,0.5913,0.5917,0.5903,0.5892,0.5905,0.5896,0.5896,0.5899,0.5886,0.5914,0.5906,0.589,0.5866,0.5904,0.5916,0.5921,0.5848,0.5848,0.5847,0.5846,0,0,0.5975,0.5957,0.5962,0.5959,0.5948,0.5953,0.5964,0.5963,0.5966,0.5963,0.5971,0.5977,0.5961,0.596,0.5946,0.5956,0.5989,0.5937,0.5937,0.5947,0.6019,0.6031,0.6038,0.5978,0.5978,0.5979,0.6019,0,0.6019,0.6036,0.6018,0.6039,0.6045,0.6018,0.6028,0.6022,0.6012,0.6015,0.6004,0.6008,0.5987,0.5986,0.5995,0.5983,0.6003,0.598,0.5985,0.5985,0.5987,0.6044,0.6058,0.6096,0.6024,0.6025,0.6025,0,0.6072,0.607,0.6092,0.6078,0.608,0.6089,0.6086,0.6089,0.6082,0.6074,0.6072,0.6055,0.6064,0.604,0.6053,0.6037,0.6038,0.6033,0.6034,0.6033,0.6008,0.6045,0.6107,0.6113,0.6033,0.6032,0.6032,0,0.6121,0.6124,0.6137,0.6135,0.612,0.6127,0.6121,0.6112,0.6112,0.611,0.611,0.6109,0.6108,0.6107,0.609,0.6074,0.6104,0.6079,0.6097,0.6098,0.6105,0.6104,0.6168,0.6106,0.6105,0.6105,0.6105,0,0.6172,0.6186,0.6159,0.6168,0.6182,0.6161,0.6176,0.6167,0.6159,0.6165,0.6142,0.6148,0.6124,0.6127,0.6114,0.6125,0.6126,0.6119,0.6115,0.6121,0.6122,0.6121,0.6118,0.6107,0.6107,0.6106,0.6106,0,0.623,0.6213,0.6225,0.6209,0.6205,0.6217,0.6203,0.621,0.6198,0.6205,0.6206,0.6187,0.6189,0.6172,0.6171,0.6162,0.618,0.6171,0.6182,0.6179,0.6198,0.6197,0.6263,0.627,0.6204,0.6205,0.6205,0,0.6263,0.6273,0.6258,0.626,0.6255,0.6258,0.6258,0.6237,0.6238,0.6229,0.6237,0.6237,0.6236,0.6241,0.6227,0.6226,0.6217,0.624,0.6217,0.6222,0.6217,0.6216,0.6217,0.6246,0.6246,0.6247,0.6248,0,0.6323,0.6314,0.6314,0.6312,0.6312,0.6309,0.6305,0.6308,0.6284,0.6286,0.6288,0.6287,0.6286,0.6286,0.6282,0.6276,0.6258,0.6255,0.6259,0.6265,0.6271,0.6267,0.6195,0.6254,0.6253,0.6253,0.6252,0.6252,0.6369,0.6377,0.6367,0.6368,0.6362,0.6358,0.6363,0.6351,0.6352,0.6349,0.6337,0.634,0.6331,0.6324,0.6319,0.6321,0.631,0.6316,0.6318,0.6319,0.6322,0.627,0.6321,0.632,0.632,0.632,0.632,0,0.6428,0.642,0.6421,0.6415,0.6416,0.6398,0.6392,0.6394,0.6397,0.639,0.6389,0.6391,0.6391,0.6376,0.6374,0.6379,0.6371,0.6379,0.6379,0.6377,0.6333,0.6329,0.6386,0.6386,0.6386,0.6386,0.6386,0.6386,0.6459,0.647,0.6459,0.6467,0.6458,0.6462,0.646,0.6455,0.645,0.6452,0.6452,0.6442,0.6432,0.6429,0.6428,0.6423,0.6424,0.6435,0.6428,0.6387,0.638,0.6374,0.6371,0.6435,0.6435,0.6472,0.6472,0.6472]}]]